This is the latest recevied weather packets stored in our database for station/object 9W3FAB-1. If no packets are shown the sender has not sent any weather packets the latest 10 day(s).
| Time | Temp. | Humidity | Pressure | Rain* | Wind** | Luminosity | Snow |
|---|---|---|---|---|---|---|---|
| 1778149931 | 29.44° C | 100% | 1003.9 hPa | - | - | - | - |
| 1778149030 | 30° C | 100% | 1004 hPa | - | - | - | - |
| 1778148130 | 30° C | 100% | 1003.9 hPa | - | - | - | - |
| 1778147229 | 30° C | 100% | 1003.9 hPa | - | - | - | - |
| 1778146327 | 30° C | 100% | 1003.8 hPa | - | - | - | - |
| 1778145426 | 29.44° C | 100% | 1003.6 hPa | - | - | - | - |
| 1778144525 | 29.44° C | 100% | 1003.4 hPa | - | - | - | - |
| 1778143664 | 30° C | 100% | 1003.4 hPa | - | - | - | - |
| 1778143624 | 30° C | 100% | 1003.4 hPa | - | - | - | - |
| 1778142723 | 30° C | 100% | 1003.1 hPa | - | - | - | - |
| 1778141822 | 30° C | 100% | 1003 hPa | - | - | - | - |
| 1778140921 | 30° C | 100% | 1003.2 hPa | - | - | - | - |
| 1778140020 | 30° C | 100% | 1003.2 hPa | - | - | - | - |
| 1778139120 | 30.56° C | 100% | 1003.4 hPa | - | - | - | - |
| 1778138219 | 30.56° C | 100% | 1003.6 hPa | - | - | - | - |
| 1778137318 | 30.56° C | 100% | 1003.8 hPa | - | - | - | - |
| 1778136417 | 30.56° C | 100% | 1004 hPa | - | - | - | - |
| 1778135516 | 30.56° C | 100% | 1004.2 hPa | - | - | - | - |
| 1778134615 | 30.56° C | 100% | 1004.6 hPa | - | - | - | - |
| 1778133715 | 31.11° C | 100% | 1004.9 hPa | - | - | - | - |
| 1778132814 | 30.56° C | 100% | 1005 hPa | - | - | - | - |
| 1778131912 | 31.11° C | 100% | 1005.4 hPa | - | - | - | - |
| 1778131011 | 30° C | 100% | 1005.9 hPa | - | - | - | - |
| 1778130110 | 30° C | 100% | 1006.2 hPa | - | - | - | - |
| 1778129210 | 30° C | 100% | 1006.4 hPa | - | - | - | - |
* Rain since midnight (hover to see other rain measurements)
** Current wind speed in m/s (hover to see current wind gust speed)